Weather in Belfast

United Kingdom     54˚35′45″N   5˚55′53″W
temp.,
°C
wind,
m/s
gust,
m/s
humid.,
%
clouds,
%
prec.,
mm/h
press.,
hPa
HPBL,
m
2 december, wed
wed200:00+8˚wsw499499 0.0 1023323
03:00+8˚sw41095100 0.0 1021414
06:00+7˚w7118097 0.2 10191015
09:00+4˚wsw4118625 0.1 1018492
12:00+6˚w6127938 0.3 10151398
15:00+5˚wsw6128188 0.4 10121280
18:00+4˚wsw7138892 0.7 10081029
21:00+3˚wsw6139395 0.7 1005913
3 december, thu
thu300:00+2˚wsw6119797 3.7 1000667
03:00+1˚wsw6119685 0.7 996615
06:00+1˚sw5119464 0.7 993404
09:00+1˚wsw599635 0.0 990452
12:00+2˚wsw488643 0.0 988467
15:00+2˚wsw37875 0.0 985296
18:00−1˚w23914 0.0 98568
21:00−1˚wsw229214 0.0 98526
4 december, fri
fri400:00−2˚wsw129229 0.0 98423
03:00−1˚wnw129114 0.0 98423
06:00−1˚nw128939 0.0 98623
09:00nnw24850 0.0 988106
12:00+3˚nnw59712 0.0 989941
15:00+3˚nnw5136897 0.0 989749
18:00+3˚nnw5147199 0.0 989813
21:00+4˚n91677100 0.0 990921
5 december, sat
sat500:00+3˚n81594100 1.4 991833
03:00+4˚n51394100 0.9 992705
06:00+5˚n51392100 1.6 993850
09:00+5˚n51394100 2.1 995800
12:00+5˚nne41193100 2.9 996711
15:00+5˚n4129499 0.4 997651
18:00+5˚n31195100 3.2 998614
21:00+5˚n31193100 0.8 999535
6 december, sun
sun600:00+5˚n31196100 1.5 999582
03:00+5˚nne3995100 0.7 998612
06:00+5˚nne51189100 1.4 998749
09:00+3˚nnw31088100 0.0 998340
12:00+5˚nnw3983100 0.0 997879
15:00+5˚nnw41184100 0.0 995687
18:00+4˚nw4118699 0.0 994401
21:00+4˚nw41287100 0.0 994388